Simultaneous Nadir Overpasses (SNOs) Predictions

Prediction of SNOs between GOES-16 and METOP-C Satellite Orbit:

Table of predicted SNOs for the next 14.0 days since TLE Epoch: 3/21/2025
Index Date Time (GOES-16) GOES-16 Lat,Lon METOP-C Lat,Lon Distance(km) Time Diff (sec)
1 03/22/2025 02:30:36 -0.06, -75.42 -0.04, -75.26 18.15 80
2 03/23/2025 14:49:28 0.06, -75.49 1.01, -79.84 494.50 80
3 03/24/2025 14:28:49 0.06, -75.51 -0.11, -74.84 76.85 80
4 03/26/2025 02:50:28 -0.06, -75.51 -0.96, -79.43 447.15 80
5 03/27/2025 02:27:09 -0.06, -75.54 0.16, -74.44 124.51 80
6 03/28/2025 14:46:00 0.06, -75.62 0.84, -79.00 386.90 80
7 03/29/2025 14:28:00 0.06, -75.64 -0.29, -74.01 185.40 80
8 03/31/2025 02:47:00 -0.06, -75.65 -0.75, -78.61 337.20 80
9 04/01/2025 02:23:40 -0.06, -75.68 0.40, -73.62 234.98 80
10 04/02/2025 14:42:31 0.06, -75.76 0.59, -78.18 276.15 80
11 04/03/2025 14:24:32 0.05, -75.79 -0.56, -73.20 296.44 80
